Location: Unspecified
(48.2082°N, 0.0000°E)
Time: 20:19:45
(UTC+00:00)

S-56A Canister/Altair - Pass Details

Date: 27 June 2019
Orbit: 632 x 2500 km, 38.9° (Epoch: 21 July)

Event Time Altitude Azimuth Distance (km) Brightness Sun altitude
Rises 14:51:18 0° 239° (WSW) 5,682 12.6 48.5°
Reaches altitude 10° 14:55:39 10° 233° (SW) 4,425 12.3 47.9°
Maximum altitude 15:06:00 41° 170° (S) 2,059 10.3 46.2°
Drops below altitude 10° 15:13:07 10° 103° (ESE) 3,054 10.3 45.1°
Sets 15:15:34 0° 95° (E) 3,800 10.7 44.7°
